This is the latest recevied weather packets stored in our database for station/object CQ0XSM-11. If no packets are shown the sender has not sent any weather packets the latest 1 day(s).
| Time | Temp. | Humidity | Pressure | Rain* | Wind** | Luminosity | Snow |
|---|---|---|---|---|---|---|---|
| 1777986044 | 13.89° C | 50% | 996.9 hPa | 0 mm | 4.47 m/s, 314° | - | - |
| 1777985750 | 13.89° C | 50% | 996.7 hPa | 0 mm | 2.68 m/s, 327° | - | - |
| 1777985438 | 14.44° C | 52% | 996.9 hPa | 0 mm | 0.89 m/s, 276° | - | - |
| 1777985144 | 13.89° C | 51% | 996.9 hPa | 0 mm | 1.79 m/s, 325° | - | - |
| 1777984531 | 13.89° C | 53% | 996.9 hPa | 0 mm | 3.58 m/s, 318° | - | - |
| 1777984233 | 13.89° C | 55% | 996.8 hPa | 0 mm | 1.79 m/s, 283° | - | - |
| 1777983931 | 13.89° C | 56% | 996.9 hPa | 0 mm | 1.79 m/s, 270° | - | - |
| 1777983618 | 13.33° C | 58% | 997.1 hPa | 0 mm | 3.58 m/s, 317° | - | - |
| 1777983330 | 13.89° C | 59% | 997.1 hPa | 0 mm | 2.24 m/s, 284° | - | - |
| 1777983015 | 13.33° C | 57% | 997 hPa | 0 mm | 0 m/s | - | - |
| 1777982726 | 13.33° C | 56% | 997.2 hPa | 0 mm | 0.89 m/s, 333° | - | - |
| 1777982406 | 13.33° C | 56% | 997.2 hPa | 0 mm | 2.68 m/s, 312° | - | - |
| 1777982112 | 13.89° C | 54% | 997.2 hPa | 0 mm | 1.34 m/s, 328° | - | - |
| 1777981799 | 13.33° C | 56% | 997.3 hPa | 0 mm | 1.79 m/s, 293° | - | - |
| 1777981510 | 13.33° C | 56% | 997.3 hPa | 0 mm | 1.79 m/s, 283° | - | - |
| 1777981188 | 13.33° C | 59% | 997.3 hPa | 0 mm | 2.68 m/s, 283° | - | - |
| 1777980896 | 13.33° C | 57% | 997.4 hPa | 0 mm | 2.24 m/s, 320° | - | - |
| 1777980293 | 13.33° C | 61% | 997.3 hPa | 0 mm | 3.13 m/s, 268° | - | - |
| 1777979979 | 12.78° C | 61% | 997.4 hPa | 0 mm | 0.89 m/s, 23° | - | - |
| 1777979686 | 12.78° C | 64% | 997.5 hPa | 0 mm | 3.13 m/s, 316° | - | - |
| 1777979381 | 12.78° C | 63% | 997.6 hPa | 0 mm | 2.24 m/s, 306° | - | - |
| 1777979080 | 12.78° C | 63% | 997.6 hPa | 0 mm | 2.68 m/s, 305° | - | - |
| 1777978794 | 12.78° C | 65% | 997.6 hPa | 0 mm | 1.79 m/s, 293° | - | - |
| 1777978475 | 12.78° C | 64% | 997.5 hPa | 0 mm | 2.24 m/s, 297° | - | - |
| 1777978161 | 13.33° C | 60% | 997.5 hPa | 0 mm | 3.58 m/s, 279° | - | - |
* Rain since midnight (hover to see other rain measurements)
** Current wind speed in m/s (hover to see current wind gust speed)